• Em Portugal
  • Lista de países
  • Para 7 dias
  • Temperatura da água
  • Mapas de satélite
  • Mapa do tempo
  • Widgets de tempo
  • user-avatar
    Iniciar Sessão

    Previsão horária em Markuszowa

    Hoje, 24 Junho, Domingo

    Tempo Temperatura Precipitação Vento Pressão Humidade
    00:00 +7°C° 0 mm 3 m/s 741 mmHg 93%
    01:00 +7°C° 0 mm 2 m/s 741 mmHg 94%
    02:00 +7°C° 0 mm 2 m/s 741 mmHg 94%
    03:00 +7°C° 0 mm 3 m/s 741 mmHg 94%
    04:00 +7°C° 0 mm 3 m/s 741 mmHg 94%
    05:00 +9°C° 0 mm 3 m/s 741 mmHg 91%
    06:00 +11°C° 0 mm 4 m/s 741 mmHg 87%
    07:00 +13°C° 0 mm 4 m/s 741 mmHg 83%
    08:00 +13°C° 0,4 mm 4 m/s 741 mmHg 82%
    09:00 +14°C° 0,4 mm 4 m/s 741 mmHg 82%
    10:00 +14°C° 0,4 mm 4 m/s 740 mmHg 81%
    11:00 +15°C° 0,7 mm 4 m/s 740 mmHg 80%
    12:00 +15°C° 0,7 mm 4 m/s 740 mmHg 79%
    13:00 +17°C° 0,7 mm 4 m/s 740 mmHg 78%
    14:00 +17°C° 0,6 mm 4 m/s 740 mmHg 78%
    15:00 +17°C° 0,6 mm 4 m/s 740 mmHg 77%
    16:00 +17°C° 0,6 mm 4 m/s 740 mmHg 76%
    17:00 +16°C° 0,3 mm 3 m/s 740 mmHg 80%
    18:00 +14°C° 0,3 mm 3 m/s 740 mmHg 83%
    19:00 +14°C° 0,3 mm 2 m/s 740 mmHg 87%
    20:00 +13°C° 0,1 mm 2 m/s 740 mmHg 89%
    21:00 +12°C° 0,1 mm 2 m/s 740 mmHg 91%
    22:00 +10°C° 0,1 mm 2 m/s 741 mmHg 93%
    23:00 +10°C° 0 mm 2 m/s 741 mmHg 94%

    Amanhã, 25 Junho, Segunda-feira

    Tempo Temperatura Precipitação Vento Pressão Humidade
    00:00 +10°C° 0 mm 2 m/s 741 mmHg 95%
    01:00 +9°C° 0 mm 2 m/s 741 mmHg 95%
    02:00 +9°C° 0 mm 2 m/s 741 mmHg 96%
    03:00 +9°C° 0 mm 2 m/s 741 mmHg 96%
    04:00 +9°C° 0 mm 2 m/s 741 mmHg 97%
    05:00 +10°C° 0 mm 2 m/s 742 mmHg 95%
    06:00 +13°C° 0 mm 2 m/s 742 mmHg 92%
    07:00 +14°C° 0 mm 2 m/s 742 mmHg 90%
    08:00 +15°C° 0,1 mm 2 m/s 742 mmHg 87%
    09:00 +15°C° 0,1 mm 2 m/s 742 mmHg 84%
    10:00 +16°C° 0,1 mm 2 m/s 743 mmHg 80%
    11:00 +17°C° 0,1 mm 2 m/s 743 mmHg 75%
    12:00 +18°C° 0,1 mm 2 m/s 743 mmHg 71%
    13:00 +19°C° 0,1 mm 2 m/s 743 mmHg 66%
    14:00 +21°C° 0,1 mm 1 m/s 743 mmHg 64%
    15:00 +21°C° 0,1 mm 1 m/s 743 mmHg 62%
    16:00 +21°C° 0,1 mm 1 m/s 743 mmHg 61%
    17:00 +20°C° 0,2 mm 1 m/s 743 mmHg 67%
    18:00 +19°C° 0,2 mm 1 m/s 743 mmHg 74%
    19:00 +16°C° 0,2 mm 1 m/s 743 mmHg 80%
    20:00 +15°C° 0 mm 1 m/s 743 mmHg 82%
    21:00 +13°C° 0 mm 0 m/s 743 mmHg 85%
    22:00 +12°C° 0 mm 0 m/s 743 mmHg 88%
    23:00 +12°C° 0 mm 0 m/s 743 mmHg 88%

    Depois de amanhã, 26 Junho, Terça-feira

    Tempo Temperatura Precipitação Vento Pressão Humidade
    00:00 +12°C° 0 mm 0 m/s 743 mmHg 89%
    01:00 +11°C° 0 mm 0 m/s 743 mmHg 89%
    02:00 +11°C° 0 mm 0 m/s 743 mmHg 89%
    03:00 +12°C° 0 mm 1 m/s 743 mmHg 90%
    04:00 +12°C° 0 mm 1 m/s 743 mmHg 90%
    05:00 +14°C° 0 mm 1 m/s 743 mmHg 86%
    06:00 +15°C° 0 mm 1 m/s 743 mmHg 81%
    07:00 +18°C° 0 mm 1 m/s 743 mmHg 77%
    08:00 +20°C° 0,2 mm 1 m/s 743 mmHg 71%
    09:00 +21°C° 0,2 mm 1 m/s 743 mmHg 64%
    10:00 +22°C° 0,2 mm 1 m/s 743 mmHg 58%
    11:00 +23°C° 0,3 mm 2 m/s 743 mmHg 59%
    12:00 +23°C° 0,3 mm 2 m/s 743 mmHg 59%
    13:00 +23°C° 0,3 mm 2 m/s 742 mmHg 60%
    14:00 +23°C° 0,4 mm 2 m/s 742 mmHg 60%
    15:00 +23°C° 0,4 mm 2 m/s 742 mmHg 61%
    16:00 +23°C° 0,4 mm 2 m/s 742 mmHg 61%
    17:00 +21°C° 0,7 mm 2 m/s 742 mmHg 68%
    18:00 +20°C° 0,7 mm 1 m/s 742 mmHg 76%
    19:00 +18°C° 0,7 mm 1 m/s 742 mmHg 83%
    20:00 +16°C° 0 mm 1 m/s 742 mmHg 85%
    21:00 +15°C° 0 mm 1 m/s 742 mmHg 88%
    22:00 +14°C° 0 mm 1 m/s 742 mmHg 90%
    23:00 +14°C° 0 mm 1 m/s 742 mmHg 91%

    27 Junho, Quarta-feira

    Tempo Temperatura Precipitação Vento Pressão Humidade
    00:00 +13°C° 0 mm 1 m/s 742 mmHg 93%
    01:00 +13°C° 0 mm 1 m/s 742 mmHg 94%
    02:00 +12°C° 0 mm 1 m/s 742 mmHg 95%
    03:00 +12°C° 0 mm 1 m/s 742 mmHg 95%
    04:00 +12°C° 0 mm 1 m/s 742 mmHg 96%
    05:00 +13°C° 0,2 mm 2 m/s 742 mmHg 94%
    06:00 +15°C° 0,2 mm 2 m/s 742 mmHg 91%
    07:00 +16°C° 0,2 mm 2 m/s 742 mmHg 89%
    08:00 +17°C° 0,1 mm 2 m/s 742 mmHg 83%
    09:00 +18°C° 0,1 mm 2 m/s 742 mmHg 77%
    10:00 +19°C° 0,1 mm 2 m/s 742 mmHg 71%
    11:00 +20°C° 0,4 mm 2 m/s 741 mmHg 68%
    12:00 +21°C° 0,4 mm 2 m/s 741 mmHg 66%
    13:00 +21°C° 0,4 mm 2 m/s 741 mmHg 63%
    14:00 +21°C° 0,6 mm 2 m/s 741 mmHg 66%
    15:00 +21°C° 0,6 mm 3 m/s 740 mmHg 70%
    16:00 +21°C° 0,6 mm 3 m/s 740 mmHg 73%
    17:00 +20°C° 0,8 mm 3 m/s 740 mmHg 78%
    18:00 +19°C° 0,8 mm 2 m/s 740 mmHg 84%
    19:00 +18°C° 0,8 mm 2 m/s 740 mmHg 89%
    20:00 +17°C° 0,8 mm 2 m/s 740 mmHg 91%
    21:00 +16°C° 0,8 mm 2 m/s 740 mmHg 93%
    22:00 +15°C° 0,8 mm 2 m/s 740 mmHg 95%
    23:00 +15°C° 0,3 mm 2 m/s 739 mmHg 96%

    28 Junho, Quinta-feira

    Tempo Temperatura Precipitação Vento Pressão Humidade
    00:00 +15°C° 0,3 mm 2 m/s 739 mmHg 96%
    01:00 +15°C° 0,3 mm 2 m/s 739 mmHg 97%
    02:00 +15°C° 0,9 mm 2 m/s 739 mmHg 97%
    03:00 +15°C° 0,9 mm 2 m/s 738 mmHg 97%
    04:00 +15°C° 0,9 mm 2 m/s 738 mmHg 98%
    05:00 +15°C° 1,5 mm 2 m/s 737 mmHg 98%
    06:00 +16°C° 1,5 mm 2 m/s 737 mmHg 97%
    07:00 +16°C° 1,5 mm 3 m/s 736 mmHg 97%
    08:00 +16°C° 0,8 mm 3 m/s 736 mmHg 96%
    09:00 +17°C° 0,8 mm 3 m/s 735 mmHg 95%
    10:00 +17°C° 0,8 mm 3 m/s 735 mmHg 94%
    11:00 +18°C° 0,3 mm 3 m/s 735 mmHg 91%
    12:00 +19°C° 0,3 mm 3 m/s 735 mmHg 89%
    13:00 +19°C° 0,3 mm 3 m/s 735 mmHg 86%
    14:00 +19°C° 0,4 mm 3 m/s 735 mmHg 86%
    15:00 +19°C° 0,4 mm 3 m/s 735 mmHg 86%
    16:00 +19°C° 0,4 mm 3 m/s 735 mmHg 86%
    17:00 +18°C° 0,1 mm 2 m/s 735 mmHg 88%
    18:00 +18°C° 0,1 mm 2 m/s 735 mmHg 89%
    19:00 +18°C° 0,1 mm 1 m/s 735 mmHg 90%
    20:00 +16°C° 0 mm 1 m/s 735 mmHg 92%
    21:00 +15°C° 0 mm 2 m/s 735 mmHg 93%
    22:00 +14°C° 0 mm 2 m/s 735 mmHg 95%
    23:00 +14°C° 0 mm 2 m/s 735 mmHg 95%

    29 Junho, Sexta-feira

    Tempo Temperatura Precipitação Vento Pressão Humidade
    00:00 +14°C° 0 mm 2 m/s 735 mmHg 95%
    01:00 +13°C° 0 mm 2 m/s 735 mmHg 95%
    02:00 +13°C° 0 mm 2 m/s 735 mmHg 96%
    03:00 +13°C° 0 mm 2 m/s 735 mmHg 96%
    04:00 +13°C° 0 mm 2 m/s 735 mmHg 96%
    05:00 +14°C° 0 mm 3 m/s 735 mmHg 92%
    06:00 +16°C° 0 mm 3 m/s 735 mmHg 88%
    07:00 +18°C° 0 mm 4 m/s 735 mmHg 83%
    08:00 +19°C° 0 mm 4 m/s 735 mmHg 78%
    09:00 +20°C° 0 mm 5 m/s 735 mmHg 73%
    10:00 +21°C° 0 mm 5 m/s 735 mmHg 69%
    11:00 +21°C° 0,1 mm 5 m/s 735 mmHg 66%
    12:00 +22°C° 0,1 mm 5 m/s 735 mmHg 64%
    13:00 +22°C° 0,1 mm 5 m/s 735 mmHg 62%
    14:00 +22°C° 0,1 mm 5 m/s 735 mmHg 63%
    15:00 +22°C° 0,1 mm 5 m/s 735 mmHg 65%
    16:00 +21°C° 0,1 mm 5 m/s 735 mmHg 67%
    17:00 +20°C° 0,1 mm 4 m/s 734 mmHg 73%
    18:00 +18°C° 0,1 mm 3 m/s 734 mmHg 79%
    19:00 +17°C° 0,1 mm 3 m/s 734 mmHg 85%
    20:00 +16°C° 0 mm 2 m/s 734 mmHg 88%
    21:00 +15°C° 0 mm 2 m/s 735 mmHg 90%
    22:00 +14°C° 0 mm 2 m/s 735 mmHg 93%
    23:00 +14°C° 0 mm 2 m/s 735 mmHg 93%
    Mostrar mais